This is the latest recevied weather packets stored in our database for station/object W4JCW. If no packets are shown the sender has not sent any weather packets the latest 10 day(s).
| Time | Temp. | Humidity | Pressure | Rain* | Wind** | Luminosity | Snow |
|---|---|---|---|---|---|---|---|
| 1777744008 | 12.22° C | 92% | 1011.1 hPa | 0 mm | - | 254 W/m² | - |
| 1777743704 | 12.22° C | 92% | 1011.1 hPa | 0 mm | - | 264 W/m² | - |
| 1777743402 | 12.22° C | 93% | 1011.2 hPa | 0 mm | - | 223 W/m² | - |
| 1777743099 | 12.22° C | 93% | 1011.3 hPa | 0.51 mm | - | 206 W/m² | - |
| 1777742796 | 12.22° C | 92% | 1011.4 hPa | 0.51 mm | - | 215 W/m² | - |
| 1777742493 | 12.22° C | 93% | 1011.2 hPa | 0.51 mm | - | 162 W/m² | - |
| 1777742188 | 12.22° C | 93% | 1011.3 hPa | 0.51 mm | - | 151 W/m² | - |
| 1777741886 | 12.22° C | 93% | 1011.5 hPa | 0.51 mm | - | 163 W/m² | - |
| 1777741583 | 11.67° C | 94% | 1011 hPa | 0.51 mm | - | 207 W/m² | - |
| 1777741280 | 11.67° C | 94% | 1010.8 hPa | 0.51 mm | - | 288 W/m² | - |
| 1777740976 | 11.67° C | 93% | 1011.1 hPa | 1.27 mm | - | 155 W/m² | - |
| 1777740673 | 11.67° C | 93% | 1011.5 hPa | 1.27 mm | - | 159 W/m² | - |
| 1777740369 | 11.67° C | 92% | 1011.4 hPa | 1.78 mm | - | 131 W/m² | - |
| 1777740067 | 11.67° C | 93% | 1011.2 hPa | 3.05 mm | - | 171 W/m² | - |
| 1777739762 | 11.67° C | 93% | 1011.2 hPa | 1.27 mm | - | 141 W/m² | - |
| 1777739459 | 11.67° C | 93% | 1011.2 hPa | 0 mm | - | 163 W/m² | - |
| 1777739156 | 12.22° C | 94% | 1011.3 hPa | 0.51 mm | - | 149 W/m² | - |
| 1777738853 | 11.67° C | 94% | 1011.2 hPa | 0 mm | - | 126 W/m² | - |
| 1777738550 | 11.67° C | 94% | 1011.5 hPa | 0 mm | - | 158 W/m² | - |
| 1777738248 | 11.67° C | 94% | 1012 hPa | 0 mm | - | 157 W/m² | - |
| 1777737945 | 11.67° C | 94% | 1012 hPa | 0 mm | - | 155 W/m² | - |
| 1777737643 | 11.67° C | 93% | 1011.9 hPa | 0 mm | - | 139 W/m² | - |
| 1777737342 | 11.67° C | 92% | 1011.8 hPa | 0 mm | - | 157 W/m² | - |
| 1777737039 | 11.67° C | 92% | 1011.5 hPa | 0 mm | - | 157 W/m² | - |
| 1777736735 | 11.67° C | 94% | 1011.7 hPa | 0.51 mm | - | 94 W/m² | - |
* Rain latest hour (hover to see other rain measurements)
** Current wind speed in m/s (hover to see current wind gust speed)